TimeEST,TemperatureF,Dew PointF,Humidity,Sea Level PressureIn,VisibilityMPH,Wind Direction,Wind SpeedMPH,Gust SpeedMPH,PrecipitationIn,Events,Conditions,WindDirDegrees,DateUTC
12:53 AM,34.0,27.0,75,30.51,10.0,NNE,4.6,-,N/A,,Clear,20,2013-01-19 05:53:00
1:53 AM,34.0,27.0,75,30.50,10.0,North,5.8,-,N/A,,Clear,360,2013-01-19 06:53:00
2:53 AM,33.1,28.0,82,30.48,10.0,NE,4.6,-,N/A,,Clear,40,2013-01-19 07:53:00
3:53 AM,33.1,28.0,82,30.48,10.0,NNE,4.6,-,N/A,,Clear,30,2013-01-19 08:53:00
4:53 AM,33.1,28.9,85,30.47,10.0,NNE,8.1,-,N/A,,Clear,30,2013-01-19 09:53:00
5:53 AM,34.0,28.9,82,30.46,10.0,North,5.8,-,N/A,,Partly Cloudy,10,2013-01-19 10:53:00
6:53 AM,34.0,28.9,82,30.47,10.0,NNE,4.6,-,N/A,,Mostly Cloudy,20,2013-01-19 11:53:00
7:53 AM,36.0,28.9,76,30.48,10.0,Calm,Calm,-,N/A,,Overcast,0,2013-01-19 12:53:00
8:53 AM,39.9,30.0,68,30.48,10.0,NE,6.9,-,N/A,,Partly Cloudy,40,2013-01-19 13:53:00
9:53 AM,44.1,27.0,51,30.50,10.0,NE,5.8,-,N/A,,Clear,40,2013-01-19 14:53:00
10:53 AM,46.9,27.0,46,30.47,10.0,NNE,4.6,-,N/A,,Overcast,20,2013-01-19 15:53:00
11:53 AM,50.0,25.0,38,30.43,10.0,NE,3.5,-,N/A,,Partly Cloudy,40,2013-01-19 16:53:00
12:53 PM,55.0,30.9,40,30.38,10.0,Calm,Calm,-,N/A,,Clear,0,2013-01-19 17:53:00
1:53 PM,57.0,34.0,42,30.33,10.0,Calm,Calm,-,N/A,,Clear,0,2013-01-19 18:53:00
2:53 PM,59.0,36.0,42,30.30,3.0,Calm,Calm,-,N/A,,Haze,0,2013-01-19 19:53:00
3:53 PM,60.1,37.9,44,30.29,10.0,South,3.5,-,N/A,,Clear,190,2013-01-19 20:53:00
4:53 PM,55.9,39.9,55,30.27,10.0,ESE,5.8,-,N/A,,Scattered Clouds,120,2013-01-19 21:53:00
5:53 PM,51.1,42.1,71,30.26,10.0,SE,4.6,-,N/A,,Clear,130,2013-01-19 22:53:00
6:53 PM,48.9,42.1,77,30.26,10.0,Calm,Calm,-,N/A,,Clear,0,2013-01-19 23:53:00
7:53 PM,46.0,42.1,86,30.27,10.0,Calm,Calm,-,N/A,,Clear,0,2013-01-20 00:53:00
8:53 PM,44.1,41.0,89,30.25,10.0,Calm,Calm,-,N/A,,Clear,0,2013-01-20 01:53:00
9:53 PM,43.0,39.9,89,30.24,10.0,Calm,Calm,-,N/A,,Clear,0,2013-01-20 02:53:00
10:53 PM,43.0,39.0,86,30.24,10.0,Calm,Calm,-,N/A,,Clear,0,2013-01-20 03:53:00
11:53 PM,43.0,41.0,93,30.21,10.0,Calm,Calm,-,N/A,,Clear,0,2013-01-20 04:53:00